EW3867 Weather Reports


time (UTC)temp
C
wind
direction
speed
KPH
gust
KPH
rain 1hr
cm
rain 24hr
cm
rain mn
cm
humidity
%
barometer
mb
20260508202050 24 0 14.5 30.6 0.00 0.00 0.00 18 1005.8
20260508195927 23 0 12.9 41.8 0.00 0.00 0.00 17 1006.0
20260508194910 23 0 14.5 41.8 0.00 0.00 0.00 17 1006.1
20260508193911 24 271 20.9 30.6 0.00 0.00 0.00 17 1006.1
20260508192922 24 0 17.7 40.2 0.00 0.00 0.00 17 1006.2
20260508191920 23 344 20.9 40.2 0.00 0.00 0.00 17 1006.2
20260508190944 23 0 4.8 17.7 0.00 0.00 0.00 19 1006.2
20260508185920 23 241 12.9 33.8 0.00 0.00 0.00 19 1006.4
20260508184854 23 0 6.4 25.7 0.00 0.00 0.00 19 1006.7
20260508183848 22 274 20.9 38.6 0.00 0.00 0.00 19 1006.9
20260508182854 22 347 0.0 24.1 0.00 0.00 0.00 20 1007.0
20260508181850 22 210 9.7 30.6 0.00 0.00 0.00 20 1007.3
20260508180827 22 0 12.9 25.7 0.00 0.00 0.00 20 1007.4
20260508175846 22 0 6.4 17.7 0.00 0.00 0.00 21 1007.5
20260508174837 21 272 11.3 27.4 0.00 0.00 0.00 21 1007.7
20260508173810 21 0 1.6 17.7 0.00 0.00 0.00 21 1007.9
20260508172739 21 0 14.5 24.1 0.00 0.00 0.00 20 1008.1
20260508170700 21 267 16.1 30.6 0.00 0.00 0.00 20 1008.3
20260508165718 21 0 6.4 30.6 0.00 0.00 0.00 21 1008.4
20260508164742 21 271 16.1 30.6 0.00 0.00 0.00 22 1008.7
20260508163717 21 0 12.9 30.6 0.00 0.00 0.00 21 1008.7
20260508162713 21 0 9.7 30.6 0.00 0.00 0.00 21 1008.8
20260508161655 20 343 11.3 25.7 0.00 0.00 0.00 22 1008.8
20260508160630 20 343 6.4 25.7 0.00 0.00 0.00 22 1009.0
20260508155620 19 0 9.7 24.1 0.00 0.00 0.00 22 1009.1
20260508154638 19 0 9.7 19.3 0.00 0.00 0.00 22 1009.1
20260508153653 19 331 4.8 20.9 0.00 0.00 0.00 22 1009.3
20260508152634 18 0 6.4 17.7 0.00 0.00 0.00 23 1009.3
20260508150539 18 0 1.6 11.3 0.00 0.00 0.00 24 1009.6
20260508145511 17 0 1.6 17.7 0.00 0.00 0.00 25 1009.8
20260508144505 17 0 0.0 0.0 0.00 0.00 0.00 26 1009.8
20260508143449 17 0 0.0 12.9 0.00 0.00 0.00 25 1009.9
20260508141327 15 0 0.0 0.0 0.00 0.00 0.00 29 1010.0
20260508140344 15 0 0.0 0.0 0.00 0.00 0.00 30 1010.2
20260508135316 13 0 0.0 0.0 0.00 0.00 0.00 31 1010.2
20260508134305 12 0 0.0 0.0 0.00 0.00 0.00 35 1010.2
20260508132124 11 0 0.0 0.0 0.00 0.00 0.00 36 1010.2
20260508131107 9 0 0.0 0.0 0.00 0.00 0.00 39 1010.1
20260508130117 8 0 0.0 3.2 0.00 0.00 0.00 40 1010.1
20260508124002 7 332 0.0 0.0 0.00 0.00 0.00 40 1010.2
20260508121849 7 332 0.0 6.4 0.00 0.00 0.00 42 1010.2
20260508120904 6 332 0.0 1.6 0.00 0.00 0.00 43 1010.2
20260508115838 6 332 0.0 0.0 0.00 0.00 0.00 45 1010.3
20260508114811 5 332 0.0 0.0 0.00 0.00 0.00 45 1010.4
20260508113818 5 332 0.0 0.0 0.00 0.00 0.00 46 1010.3
20260508111725 5 332 0.0 0.0 0.00 0.00 0.00 45 1010.4
20260508110726 5 332 0.0 1.6 0.00 0.00 0.00 46 1010.4
20260508105732 5 332 0.0 0.0 0.00 0.00 0.00 46 1010.5
20260508104711 5 332 0.0 0.0 0.00 0.00 0.00 45 1010.5
20260508103654 5 332 0.0 6.4 0.00 0.00 0.00 44 1010.5
20260508102703 6 332 0.0 0.0 0.00 0.00 0.00 42 1010.6
20260508101715 6 332 0.0 0.0 0.00 0.00 0.00 43 1010.6
20260508100658 7 332 0.0 0.0 0.00 0.00 0.00 42 1010.7
20260508095700 6 332 0.0 0.0 0.00 0.00 0.00 42 1010.6
20260508094644 6 332 0.0 0.0 0.00 0.00 0.00 43 1010.6
20260508093654 6 332 0.0 0.0 0.00 0.00 0.00 44 1010.6
20260508092651 6 332 0.0 0.0 0.00 0.00 0.00 43 1010.6
20260508091712 6 332 0.0 0.0 0.00 0.00 0.00 42 1010.7
20260508090641 6 332 0.0 0.0 0.00 0.00 0.00 42 1010.7
20260508085637 6 332 0.0 0.0 0.00 0.00 0.00 41 1010.7
20260508084625 7 332 0.0 0.0 0.00 0.00 0.00 39 1010.9
20260508083610 8 332 0.0 0.0 0.00 0.00 0.00 38 1011.0
20260508082552 8 332 0.0 11.3 0.00 0.00 0.00 39 1011.1
20260508081553 8 0 0.0 8.0 0.00 0.00 0.00 39 1011.2
20260508080525 8 0 0.0 0.0 0.00 0.00 0.00 38 1011.3
20260508075541 8 0 0.0 8.0 0.00 0.00 0.00 38 1011.3
20260508074506 8 0 0.0 1.6 0.00 0.00 0.00 36 1011.4
20260508072339 9 0 0.0 1.6 0.00 0.00 0.00 35 1011.7
20260508071312 8 0 0.0 0.0 0.00 0.00 0.00 36 1011.7
20260508070302 7 0 0.0 0.0 0.00 0.00 0.00 37 1011.8
20260508065234 8 0 0.0 0.0 0.00 0.00 0.00 36 1011.9
20260508063132 10 0 0.0 0.0 0.00 0.00 0.00 33 1011.9
20260508062137 10 0 0.0 0.0 0.00 0.00 0.00 34 1011.9
20260508061122 10 0 0.0 0.0 0.00 0.00 0.00 34 1012.0
20260508060120 9 0 0.0 0.0 0.00 0.00 0.00 34 1012.0
20260508055058 9 0 0.0 0.0 0.00 0.00 0.00 34 1011.9
20260508054036 10 0 0.0 0.0 0.00 0.00 0.00 33 1011.9
20260508053017 10 0 0.0 0.0 0.00 0.00 0.00 33 1012.0
20260508050848 11 0 0.0 0.0 0.00 0.00 0.00 32 1012.2
20260508045827 11 0 0.0 0.0 0.00 0.00 0.00 31 1012.2
20260508044752 11 0 0.0 0.0 0.00 0.00 0.00 30 1012.3
20260508043735 11 0 0.0 0.0 0.00 0.00 0.00 30 1012.2
20260508042741 12 0 0.0 0.0 0.00 0.00 0.00 29 1012.2
20260508041734 12 0 0.0 1.6 0.00 0.00 0.00 29 1012.3
20260508035632 13 0 0.0 0.0 0.00 0.00 0.00 27 1012.2
20260508033513 13 0 0.0 11.3 0.00 0.00 0.00 27 1011.9
20260508032441 13 0 0.0 6.4 0.00 0.00 0.00 28 1011.8
20260508030319 12 0 0.0 0.0 0.00 0.00 0.00 27 1011.6
20260508025341 13 0 0.0 0.0 0.00 0.00 0.00 27 1011.6
20260508024407 13 0 0.0 0.0 0.00 0.00 0.00 26 1011.6
20260508023429 13 0 0.0 0.0 0.00 0.00 0.00 26 1011.4
20260508022442 14 0 0.0 0.0 0.00 0.00 0.00 25 1011.4
20260508021417 15 0 0.0 0.0 0.00 0.00 0.00 23 1011.4
20260508020442 15 0 0.0 0.0 0.00 0.00 0.00 23 1011.4
20260508015442 16 0 0.0 1.6 0.00 0.00 0.00 22 1011.4
20260508014430 16 0 1.6 19.3 0.00 0.00 0.00 22 1011.4
20260508011139 17 0 16.1 27.4 0.00 0.00 0.00 20 1011.1
20260508004937 19 0 16.1 27.4 0.00 0.00 0.00 19 1011.1
20260508003909 20 331 16.1 30.6 0.00 0.00 0.00 19 1011.1
20260508002854 20 0 12.9 32.2 0.00 0.00 0.00 19 1011.1
20260508001825 20 0 16.1 32.2 0.00 0.00 0.00 18 1011.3
20260508000839 20 0 11.3 29.0 0.00 0.00 0.00 18 1011.4
20260507235859 20 0 16.1 35.4 0.00 0.00 0.00 18 1011.5
20260507234843 20 0 14.5 37.0 0.00 0.00 0.00 18 1011.6
20260507233902 20 0 16.1 37.0 0.00 0.00 0.00 18 1011.5
20260507232842 20 331 12.9 35.4 0.00 0.00 0.00 17 1011.6
20260507231837 20 0 6.4 30.6 0.00 0.00 0.00 17 1011.7
20260507230827 20 0 14.5 30.6 0.00 0.00 0.00 17 1011.8
20260507225851 21 0 9.7 29.0 0.00 0.00 0.00 17 1012.0
20260507224834 21 0 6.4 24.1 0.00 0.00 0.00 17 1012.1
20260507223801 21 0 9.7 24.1 0.00 0.00 0.00 16 1012.2
20260507222817 20 333 6.4 1.6 0.00 0.00 0.00 17 1012.3
20260507220638 21 0 6.4 24.1 0.00 0.00 0.00 16 1012.7
20260507215640 20 229 9.7 22.5 0.00 0.00 0.00 16 1012.9
20260507214640 20 263 6.4 20.9 0.00 0.00 0.00 16 1013.1
20260507213659 20 0 6.4 17.7 0.00 0.00 0.00 15 1013.4
20260507211531 20 254 6.4 19.3 0.00 0.00 0.00 16 1013.9
20260507210522 20 228 4.8 29.0 0.00 0.00 0.00 16 1014.2
20260507205520 20 265 1.6 14.5 0.00 0.00 0.00 16 1014.5
20260507204449 20 233 4.8 19.3 0.00 0.00 0.00 16 1014.7
20260507203420 19 221 1.6 19.3 0.00 0.00 0.00 16 1014.8